Showing default

HJS-7A, 65617

Orbit data source: Space-Track

HJS-7A, 65617 is a payload satellite owned by Zhongguo Xingwang (CN) in LEO that was launched on Tue, 16 Sep 2025 UTC via a CHANG ZHENG 2C/YZ-1S launch vehicle from the Jiuquan Satellite Launch Center, China (JSC). Payload-class satellites include a variety of spacecraft equipped with specific instruments for various scientific and technological missions. These include communications satellites like Starlink; space stations such as the ISS; scientific satellites like the Hubble; Earth observation satellites from companies like Planet Labs, Umbra, and HawkEye 360; GPS; miniature CubeSats for education and research; and military/defense satellites.

Loading next visibility...
Identifier
65617, 2025-209A
Orbit
LEO
Country
Flag of CNCN / PRC
Related business
Manufacturer
ZHSW
Mission
Operational Civil Communications
Bus & Motor
Unknown
Mass
~300 kg wet, ~300 kg dry
Launch date (UTC)
2025-09-16 (9 months ago)
Launch vehicle
CHANG ZHENG 2C/YZ-1S
Launch site
Jiuquan Satellite Launch Center, China (JSC)
Object type
Payload
Rocket body
Debris
Shape & HBR
Box + 2 Pan, 1.1 m
Radar Cross Section
2.320 m², Large (>1 m²)

Expand to show TLE details & history
Last TLE update: 15 hours ago

TLE from 15 hours ago
0 HJS-7A
1 65617U 25209A   26171.20638559 -.00000099  00000-0  52266-4 0  9992
2 65617  50.0006 348.2358 0000993  99.7429 260.3561 13.41464125 38074
Epoch: 2026-06-20T04:57Z
TLE epoch observation values (Epoch: 2026-06-20T04:57:11.714Z)
Latitude
-0.00001°
Longitude
5.51265°
Altitude
1,104.464 km
Speed
7.301 km/s
True Right ascension
23h 12m 56s
True Declination
0° 00' 00"
Sunlit
Object was in daylight at epoch
Visualization orbit readout
Latitude
Unknown
Longitude
Unknown
Altitude
Unknown
Speed
Unknown
Apparent Right ascension
Unknown
Apparent Declination
Unknown
Sunlit
N/A
Visualization observer readout
Local Sidereal Time
07:18:52
Azimuth
Unknown
Elevation
Unknown
Doppler factor
Unknown
Orbital elements
Apogee altitude
1,105.283 km
Perigee altitude
1,103.797 km
Semi-major axis
7,482.677 km
Eccentricity
0.0001
Inclination
50.0006°
RAAN
348.2358°
Arg. of periapsis
99.7429°
True anomaly
260.34488°
Mean anomaly
260.3561°
Eccentric anomaly
260.35049°
Mean motion
3.35319 °/min
Orbital period
107.36 mins
BSTAR
0.000052266
Loading maneuver chart data...
Computing Atmospheric mass density...
Loading historical data...
Loading historical data...
Loading historical data...
Loading historical data...
Loading historical data...
Loading historical data...
Loading historical data...
Other satellites on launch #209 in the year 2025 (2025-09-16 UTC)

Documentation

Showing up to 5 results
|